Flag for Canada Weather past 2 weeks in Miramichi, New Brunswick, Canada

43 °F

Passing clouds.

Feels Like: 37 °F
Forecast: 41 / 50 °F
Wind: 10 mph from Southwest

Location: Bathurst Airport

Current Time: Nov 26, 2015 at 11:42:47 PM

Latest Report: Nov 26, 2015 at 11:00 PM

Visibility: 15 mi

Pressure: 30.41 "Hg

Humidity: 81%

Dew point: 37 °F

Location of MiramichiLocation

Historic Weather in Miramichi — Graph


Miramichi temperature yesterday

Maximum temperature yesterday: 30 °F (at 3:00 PM)
Minimum temperature yesterday: 14 °F (at 6:00 AM)
Average temperature yesterday: 20 °F

Past Weeks' High & Low Weather Summary

High48 °F (Nov 22, 1:00 PM)100% (Nov 13, 12:00 AM)30.87 "Hg (Nov 13, 12:00 AM)
Low14 °F (Nov 25, 6:00 AM)52% (Nov 17, 12:00 PM)29.24 "Hg (Nov 13, 3:00 PM)
Average34 °F81%30.08 "Hg
* Reported Nov 11 10:00 PM — Nov 26 10:00 PM, Miramichi, Weather by CustomWeather, © 2015

Note: Actual official high and low records may vary slightly from our data, if they occured in-between our weather recording intervals... More about our weather records


Miramichi weather history for previous 24 hours

Time TempWeatherWind HumidityBarometerVisibility
10:00 PM
Thu, Nov 26
41 °FMostly cloudy.6 mph81%30.45 "Hg15 mi
9:00 PM39 °FMostly cloudy.6 mph87%30.49 "Hg15 mi
8:00 PM39 °FOvercast.9 mph87%30.51 "Hg15 mi
7:00 PM37 °FPassing clouds.7 mph93%30.54 "Hg15 mi
6:00 PM37 °FPassing clouds.6 mph87%30.55 "Hg15 mi
5:00 PM37 °FPartly cloudy.9 mph87%30.55 "Hg15 mi
4:00 PM39 °FBroken clouds.10 mph81%30.57 "Hg15 mi
3:00 PM39 °FPartly sunny.8 mph81%30.58 "Hg15 mi
2:00 PM39 °FCloudy.9 mph75%30.60 "Hg15 mi
1:00 PM34 °FMore clouds than sun.5 mph81%30.63 "Hg15 mi
12:00 PM32 °FCloudy.10 mph80%30.66 "Hg15 mi
11:00 AM30 °FBroken clouds.12 mph80%30.70 "Hg15 mi
10:00 AM28 °FPartly sunny.13 mph80%30.72 "Hg15 mi
9:00 AM25 °FPartly sunny.9 mph86%30.74 "Hg15 mi
8:00 AM23 °FMostly cloudy.7 mph86%30.77 "Hg15 mi
7:00 AM21 °FPartly cloudy.7 mph86%30.79 "Hg15 mi
6:00 AM19 °FPartly cloudy.8 mph93%30.81 "Hg15 mi
5:00 AM19 °FPassing clouds.3 mph86%30.83 "Hg15 mi
4:00 AM19 °FPassing clouds.6 mph86%30.82 "Hg15 mi
3:00 AM19 °FMostly cloudy.5 mph86%30.84 "Hg15 mi
2:00 AM18 °FMostly cloudy.5 mph86%30.87 "Hg15 mi
1:00 AM14 °FPassing clouds.2 mph92%30.87 "Hg15 mi
12:00 AM16 °FPartly cloudy.3 mph93%30.87 "Hg15 mi
11:00 PM
Wed, Nov 25
16 °FPassing clouds.2 mph86%30.86 "Hg15 mi
Weather by CustomWeather, © 2015

See weather overviewHow to use our weather pages